Tracking 19176 objects as of 27-May-2018
HD Live streaming from Space Station
objects crossing your sky now

METEOR 1-22

Track METEOR 1-22 now!
10-day predictions
METEOR 1-22 is classified as:


NORAD ID: 8293
Int'l Code: 1975-087A
Perigee: 803.7 km
Apogee: 913.9 km
Inclination: 81.3 °
Period: 102.0 minutes
Semi major axis: 7229 km
RCS: 4.5926 m2 (large)
Launch date: September 18, 1975
Source: Commonwealth of Independent States (former USSR) (CIS)
Launch site: PLESETSK MISSILE AND SPACE COMPLEX (PKMTR)
aabbcc
Your satellite tracking list
Your tracking list is empty




NASA's NSSDC Master Catalog

Two Line Element Set (TLE):
1  8293U 75087A   18146.90809285 +.00000120 +00000-0 +56760-4 0  9991
2  8293 081.2545 338.0838 0076180 054.5730 306.2524 14.12255861197574
Source of the keplerian elements: AFSPC